Home   Weather   Nordkirchen   Past weeks

Flag for Germany Past Weather in Nordkirchen, North Rhine-Westphalia, Germany — Yesterday and Last 2 Weeks

Now
37 °F

Light rain. Partly cloudy.


Feels Like: 27 °F
Forecast: 34 / 43 °F
Wind: 18 mph from West

Location: Muenster / Osnabrueck

Current Time: Feb 24, 2017 at 5:00:30 am

Latest Report: Feb 24, 2017 at 4:20 am


Visibility: N/A

Pressure: 29.56 "Hg

Humidity: 87%

Dew Point: 34 °F

Location of NordkirchenLocation

Past Weather in Nordkirchen — Graph

°F

Nordkirchen Temperature Yesterday

Maximum temperature yesterday: 50 °F (at 3:50 pm)
Minimum temperature yesterday: 41 °F (at 11:50 pm)
Average temperature yesterday: 47 °F

High & Low Weather Summary for the Past Weeks

 TemperatureHumidityPressure
High55 °F (Feb 15, 2:50 pm)100% (Feb 16, 5:20 am)30.51 "Hg (Feb 16, 5:20 am)
Low27 °F (Feb 9, 10:50 pm)29% (Feb 14, 12:20 pm)29.12 "Hg (Feb 23, 4:50 pm)
Average40 °F82%30.15 "Hg
* Reported Feb 9 3:20 am — Feb 24 3:20 am, Nordkirchen, Weather by CustomWeather, © 2017

Note: Actual official high and low records may vary slightly from our data, if they occured in-between our weather recording intervals... More about our weather records

Advertising

Nordkirchen Weather History for the Previous 24 Hours

Scroll right to see more
 ConditionsComfort  
Time TempWeatherWind HumidityBarometerVisibility
3:20 am
Fri, Feb 24
39 °FLight rain. Partly cloudy.23 mph81%29.50 "HgN/A
2:50 am37 °FLight rain. Passing clouds.21 mph93%29.47 "HgN/A
2:20 am37 °FLight rain. Passing clouds.21 mph93%29.42 "HgN/A
1:50 am37 °FLight rain. Passing clouds.21 mph93%29.39 "HgN/A
1:20 am39 °FLight rain. Passing clouds.26 mph87%29.30 "Hg5 mi
12:50 am41 °FLight rain. Passing clouds.23 mph93%29.21 "HgN/A
12:20 am41 °FLight rain. Passing clouds.24 mph87%29.21 "HgN/A
11:50 pm
Thu, Feb 23
41 °FLight rain. Passing clouds.26 mph87%29.18 "HgN/A
11:20 pm43 °FLight rain. Partly cloudy.30 mph81%29.18 "HgN/A
10:50 pm43 °FLight rain. Passing clouds.28 mph81%29.18 "HgN/A
10:20 pm45 °FLight rain. Passing clouds.25 mph76%29.18 "HgN/A
9:50 pm45 °FPassing clouds.35 mph71%29.15 "HgN/A
9:20 pm45 °FLight rain. Passing clouds.35 mph76%29.15 "HgN/A
8:50 pm45 °FLight rain. Passing clouds.38 mph76%29.15 "HgN/A
8:20 pm46 °FLight rain. Partly cloudy.31 mph71%29.12 "HgN/A
7:50 pm46 °FLight rain. Partly cloudy.30 mph71%29.12 "HgN/A
7:20 pm46 °FLight rain. Partly cloudy.33 mph71%29.12 "HgN/A
6:50 pm46 °FLight rain. Partly cloudy.37 mph76%29.12 "HgN/A
6:20 pm46 °FLight rain. Passing clouds.24 mph76%29.12 "HgN/A
5:50 pm48 °FScattered showers. Partly sunny.29 mph66%29.12 "HgN/A
5:20 pm50 °FScattered showers. Partly sunny.22 mph67%29.12 "HgN/A
4:50 pm50 °FScattered showers. Scattered clouds.26 mph71%29.12 "HgN/A
4:20 pm48 °FSprinkles. Partly sunny.28 mph82%29.15 "HgN/A
3:50 pm50 °FPartly sunny.26 mph76%29.15 "HgN/A
3:20 pm48 °FLight rain. Partly sunny.25 mph87%29.18 "HgN/A
2:50 pm48 °FLight rain. Partly sunny.21 mph87%29.18 "Hg6 mi
2:20 pm48 °FLight rain. Partly sunny.22 mph87%29.21 "Hg6 mi
1:50 pm48 °FLight rain. Partly sunny.20 mph87%29.24 "HgN/A
1:20 pm48 °FLight rain. Partly sunny.17 mph87%29.30 "HgN/A
12:50 pm48 °FLight rain. Partly sunny.17 mph87%29.33 "Hg5 mi
12:20 pm48 °FLight rain. Partly sunny.16 mph94%29.36 "HgN/A
11:50 am48 °FDrizzle. Partly sunny.20 mph94%29.39 "Hg3 mi
11:20 am48 °FDrizzle. Partly sunny.14 mph94%29.39 "HgN/A
10:50 am48 °FDrizzle. Partly sunny.20 mph94%29.42 "Hg2 mi
10:20 am48 °FLight rain. Partly sunny.16 mph94%29.42 "HgN/A
9:50 am48 °FRain. Partly sunny.16 mph94%29.45 "HgN/A
9:20 am48 °FRain. Partly sunny.17 mph94%29.45 "Hg5 mi
8:50 am48 °FRain. Partly sunny.15 mph94%29.47 "Hg5 mi
8:20 am48 °FRain. Partly sunny.16 mph94%29.47 "Hg4 mi
7:50 am48 °FRain. Partly sunny.12 mph94%29.47 "Hg2 mi
7:20 am45 °FPassing clouds.6 mph100%29.50 "Hg1 mi
6:50 am43 °FLight rain. Partly cloudy.5 mph100%29.50 "Hg1 mi
6:20 am43 °FLight rain. Passing clouds.5 mph100%29.53 "Hg5 mi
5:50 am45 °FLight rain. Passing clouds.5 mph93%29.56 "HgN/A
5:20 am45 °FLight rain. Passing clouds.6 mph93%29.56 "Hg6 mi
Weather by CustomWeather, © 2017

See weather overviewHow to use our weather pages